FW0693 Weather Reports


time (UTC)temp
C
wind
direction
speed
KPH
gust
KPH
rain 1hr
cm
rain 24hr
cm
rain mn
cm
humidity
%
barometer
mb
20260505181513 11 26 6.4 12.9 0.10 0.13 0.10 91 1007.2
20260505180051 11 10 6.4 12.9 0.05 0.08 0.05 91 1007.2
20260505174513 11 346 3.2 12.9 0.03 0.05 0.03 90 1007.1
20260505173032 11 334 6.4 16.1 0.03 0.05 0.03 90 1007.0
20260505170033 11 27 1.6 14.5 0.03 0.03 0.03 90 1007.1
20260505164605 11 349 4.8 12.9 0.00 0.00 0.00 90 1007.2
20260505163024 11 16 9.7 17.7 0.00 0.00 0.00 90 1007.2
20260505161603 11 355 3.2 16.1 0.00 0.00 0.00 90 1007.2
20260505153011 11 9 9.7 17.7 0.00 0.00 0.00 89 1007.4
20260505151537 12 41 4.8 24.1 0.00 0.00 0.00 89 1007.4
20260505124536 13 341 14.5 24.1 0.00 0.08 0.00 85 1008.0
20260505123055 14 26 9.7 22.5 0.00 0.08 0.00 85 1008.0
20260505121512 14 12 6.4 17.7 0.00 0.08 0.00 87 1008.0
20260505120049 13 355 6.4 12.9 0.00 0.08 0.00 86 1008.0
20260505114600 13 327 4.8 14.5 0.00 0.08 0.00 85 1008.1
20260505113021 14 350 6.4 17.7 0.00 0.08 0.00 84 1008.2
20260505111544 14 360 6.4 17.7 0.00 0.08 0.00 84 1008.2
20260505101531 14 298 8.0 17.7 0.00 0.08 0.00 84 1008.6
20260505100051 15 317 3.2 11.3 0.00 0.08 0.00 85 1008.6
20260505094501 15 323 8.0 14.5 0.00 0.08 0.00 84 1008.6
20260505093026 15 309 4.8 12.9 0.00 0.08 0.00 83 1008.6
20260505091606 15 315 4.8 9.7 0.00 0.08 0.00 84 1008.7
20260505090023 15 136 1.6 6.4 0.00 0.08 0.00 84 1008.6
20260505084546 14 355 0.0 8.0 0.00 0.08 0.00 89 1008.7
20260505083017 13 149 0.0 8.0 0.00 0.08 0.00 90 1008.8
20260505081536 13 12 0.0 4.8 0.00 0.08 0.00 92 1008.9
20260505080103 13 360 1.6 4.8 0.00 0.08 0.00 93 1008.9
20260505074532 12 140 0.0 4.8 0.00 0.08 0.00 93 1009.0
20260505073133 12 140 1.6 4.8 0.00 0.08 0.00 93 1009.1
20260505071532 12 142 0.0 0.0 0.00 0.08 0.00 93 1009.2
20260505070059 12 69 0.0 0.0 0.00 0.08 0.00 93 1009.3
20260505064524 12 323 0.0 3.2 0.00 0.08 0.00 93 1009.4
20260505063007 11 338 0.0 0.0 0.00 0.08 0.00 93 1009.5
20260505061555 11 336 0.0 0.0 0.00 0.08 0.00 93 1009.5
20260505060046 10 336 0.0 0.0 0.00 0.08 0.00 92 1009.4
20260505054518 10 329 0.0 1.6 0.00 0.08 0.00 92 1009.5
20260505053013 10 284 1.6 4.8 0.00 0.08 0.00 92 1009.5
20260505051602 10 287 3.2 4.8 0.00 0.08 0.00 92 1009.6
20260505041549 10 298 3.2 4.8 0.00 0.08 0.00 91 1009.4
20260505040013 10 296 1.6 6.4 0.00 0.08 0.00 91 1009.5
20260505034537 10 32 0.0 0.0 0.00 0.08 0.00 91 1009.4
20260505033007 10 35 0.0 0.0 0.00 0.08 0.00 91 1009.7
20260505031544 10 35 0.0 0.0 0.00 0.08 0.00 91 1010.0
20260505030007 10 35 0.0 0.0 0.00 0.08 0.00 91 1010.1
20260505024531 10 36 0.0 0.0 0.00 0.08 0.00 91 1010.2
20260505023056 10 36 0.0 0.0 0.00 0.08 0.00 90 1010.1
20260505021513 10 36 0.0 0.0 0.00 0.08 0.00 90 1010.3
20260505020039 10 36 0.0 0.0 0.00 0.08 0.00 90 1010.3
20260505014509 10 36 0.0 0.0 0.00 0.08 0.00 90 1010.4
20260505013010 10 36 0.0 0.0 0.00 0.08 0.00 89 1010.3
20260505011541 10 36 0.0 0.0 0.00 0.08 0.00 89 1010.2
20260505010002 10 36 0.0 0.0 0.00 0.08 0.00 89 1010.2
20260505004528 10 51 0.0 0.0 0.00 0.08 0.00 89 1010.2
20260505003053 11 109 0.0 0.0 0.00 0.08 0.00 90 1010.5
20260505001509 11 144 0.0 0.0 0.00 0.08 0.00 90 1010.7
20260505000050 11 144 0.0 0.0 0.00 0.08 0.00 90 1010.8
20260504234504 11 144 0.0 0.0 0.00 0.08 0.00 90 1010.9
20260504233031 11 144 0.0 0.0 0.00 0.08 0.00 90 1011.0
20260504231603 11 144 0.0 0.0 0.00 0.08 0.00 89 1011.1
20260504230023 11 144 0.0 0.0 0.00 0.08 0.00 89 1011.1
20260504224554 11 144 0.0 0.0 0.00 0.08 0.00 89 1011.3
20260504223030 11 144 0.0 0.0 0.00 0.08 0.00 89 1011.4
20260504221508 12 144 0.0 0.0 0.00 0.08 0.00 89 1011.5
20260504220046 12 144 0.0 0.0 0.00 0.08 0.00 89 1011.7
20260504214528 12 144 0.0 0.0 0.00 0.08 0.08 89 1011.7
20260504213009 12 146 0.0 0.0 0.00 0.08 0.08 88 1011.9
20260504211555 12 146 0.0 0.0 0.00 0.08 0.08 88 1012.0
20260504210031 12 146 0.0 0.0 0.00 0.08 0.08 88 1012.0
20260504204514 12 146 0.0 0.0 0.00 0.08 0.08 88 1012.0
20260504203036 12 146 0.0 0.0 0.00 0.08 0.08 87 1012.1
20260504201504 12 146 0.0 0.0 0.00 0.08 0.08 87 1012.2
20260504200044 13 145 0.0 0.0 0.00 0.08 0.08 87 1012.2
20260504194511 13 144 0.0 0.0 0.00 0.08 0.08 86 1012.1
20260504193039 13 144 0.0 0.0 0.00 0.08 0.08 86 1011.9
20260504191501 13 144 0.0 0.0 0.00 0.08 0.08 86 1011.8
20260504190029 13 144 0.0 4.8 0.00 0.08 0.08 86 1011.8
20260504184638 13 144 0.0 4.8 0.00 0.08 0.08 85 1011.7
20260504183027 13 150 3.2 12.9 0.00 0.08 0.08 85 1011.6
20260504181551 13 113 1.6 12.9 0.00 0.08 0.08 85 1011.7